Location: Catanzaro
(38.9000°N, 16.5830°E)
Time: 09:11:40
(UTC+01:00)

ISS - Visible Passes

Search period start: 22 January 2019 00:00
Search period end: 01 February 2019 00:00
Orbit: 404 x 410 km, 51.6° (Epoch: 23 January)

Date Brightness Start Highest point End Pass type
(mag) Time Alt. Az. Time Alt. Az. Time Alt. Az.
22 Jan -2.6 17:52:32 10° SSW 17:55:22 27° SE 17:57:16 16° E visible
22 Jan -1.0 19:28:51 10° W 19:30:01 18° W 19:30:01 18° W visible
23 Jan -3.3 18:37:11 10° WSW 18:40:26 55° NW 18:41:04 45° N visible
24 Jan -3.8 17:45:47 10° SW 17:49:04 77° SE 17:52:02 12° NE visible
24 Jan -1.0 19:23:35 10° WNW 19:24:46 15° NW 19:24:46 15° NW visible
25 Jan -2.0 18:31:33 10° W 18:34:22 26° NNW 18:35:40 20° N visible
26 Jan -2.8 17:39:43 10° WSW 17:42:52 41° NNW 17:46:02 10° NE visible
26 Jan -0.8 19:18:43 10° NW 19:19:13 11° NNW 19:19:13 11° NNW visible
27 Jan -1.4 18:26:21 10° WNW 18:28:25 15° NNW 18:29:59 12° N visible
28 Jan -1.8 17:34:10 10° WNW 17:36:47 21° NNW 17:39:25 10° NNE visible
29 Jan -1.2 18:21:34 10° NNW 18:22:34 11° NNW 18:23:33 10° N visible
